{"data":{"norad_id":67935,"intl_designator":"2026-037D","name":"STARLINK-36860","alt_names":[],"object_type":"PAYLOAD","status":"ACTIVE","operator":null,"country":"US","launch_date":"2026-02-24","launch_site_code":"AFETR","launch_vehicle":null,"mission":null,"orbit_class":"UNKNOWN","rcs_meters":null,"size_class":null,"mass_kg":null,"dimensions":null,"purposes":["comms"],"wikipedia_slug":null,"has_3d_model":false,"image_url":null,"decayed_at":null,"tle_current":{"epoch":"2026-05-25T05:33:30.043008Z","epoch_age_seconds":54482,"freshness":"FRESH","line1":"1 67935U 26037D   26145.23159772  .00014444  00000+0  53326-3 0  9990","line2":"2 67935  43.0014 118.7396 0001813 275.5171  84.5474 15.27586011 15048","mean_motion":15.27586011,"eccentricity":0.0001813,"inclination_deg":43.0014,"raan_deg":118.7396,"arg_perigee_deg":275.5171,"mean_anomaly_deg":84.5474,"bstar":0.00053326,"rev_number":1504,"period_min":94.26637777714,"perigee_km":481.78716722624,"apogee_km":484.27502677822,"semimajor_km":6861.1680970022,"source":"CELESTRAK","updated_at":"2026-05-25T13:38:21.766635Z"}}}